Hourly Data Report for September 18, 2017

All times are specified in Local Standard Time (LST). Add 1 hour to adjust for Daylight Saving Time where and when it is observed.

IQALUIT CLIMATE
NUNAVUT

63°44'50.000" N
68°32'40.000" W
33.50 m
2402592
71321
XFB

Download Data

Hourly Data (September 2017)
Hourly Data Report for September 18, 2017
Temp Definition
°C
Dew Point Temp Definition
°C
Rel Hum Definition
%
Wind Dir Definition
10's deg

Wind Spd Definition
km/h
Visibility Definition
km
Stn Press Definition
kPa
Hmdx Definition


Wind Chill Definition


Weather Definition


TIME
00:00 1.4 -0.2 89 26 4   101.98     LegendNANA
01:00 1.2 -0.2 91 0 1   101.99     LegendNANA
02:00 0.6 -0.6 92 0 1   102.01     LegendNANA
03:00 0.8 -0.3 92 1 2   102.01     LegendNANA
04:00 1.0 0.2 94 35 6   102.00     LegendNANA
05:00 -0.4 -1.0 95 9 1   102.03   -1 LegendNANA
06:00 0.0 -0.6 96 5 3   102.03   -1 LegendNANA
07:00 1.9 0.0 87 30 2   102.03     LegendNANA
08:00 3.4 0.7 83 27 1   102.04     LegendNANA
09:00 3.3 0.4 81 23 5   102.04     LegendNANA
10:00 4.3 1.0 79 21 6   101.99     LegendNANA
11:00 5.7 0.7 70 34 12   101.97     LegendNANA
12:00 6.7 1.0 67 27 5   101.91     LegendNANA
13:00 5.8 2.0 77 16 10   101.88     LegendNANA
14:00 5.8 1.1 72 14 7   101.84     LegendNANA
15:00 5.8 1.6 74 18 5   101.83     LegendNANA
16:00 4.7 1.2 78 13 5   101.79     LegendNANA
17:00 3.9 0.6 79 16 5   101.76     LegendNANA
18:00 2.7 0.5 85 14 6   101.76     LegendNANA
19:00 2.0 -0.2 86 1 5   101.73     LegendNANA
20:00 1.4 -0.3 89 2 5   101.69     LegendNANA
21:00 0.9 -0.9 88 2 7   101.64     LegendNANA
22:00 0.9 -0.9 88 1 7   101.59     LegendNANA
23:00 0.3 -1.4 89 26 3   101.57     LegendNANA

Notes on Data Quality.

Legend

  • E = Estimated
  • M = Missing
  • NA = Not Available
  • ‡ = Partner data that is not subject to review by the National Climate Archives
Date modified: